Temp
-12 -12 -12 -12 -12 -12 -12 -11 -12 -11 -10 -10 -10 -10 -9 -9 -9 -9 -9 -9 -9 -8 -7 -6 -6 -6 -5 -5 -5 -4 -4 -4 -4 -3 -3 -3 -3 -2
-13 -13 -13 -13 -13 -13 -13 -13 -13 -13 -11 -12 -12 -12 -11 -11 -10 -9 -10 -10 -10 -9 -9 -8 -8 -7 -7 -6 -6 -5 -5 -5 -4 -4 -4 -4 -4 -3
-14 -14 -13 -13 -13 -14 -14 -14 -14 -15 -14 -12 -13 -13 -13 -13 -13 -12 -11 -12 -12 -11 -11 -10 -9 -8 -8 -7 -7 -6 -6 -5 -5 -4 -4 -4 -4 -4
-14 -15 -15 -15 -15 -15 -15 -14 -14 -15 -15 -15 -15 -14 -14 -13 -13 -13 -13 -13 -13 -13 -12 -12 -11 -9 -9 -8 -7 -7 -6 -6 -5 -5 -5 -4 -4 -4
-16 -16 -16 -16 -16 -16 -16 -16 -16 -16 -16 -16 -15 -15 -14 -14 -14 -14 -13 -13 -13 -13 -13 -13 -13 -13 -11 -10 -9 -9 -8 -7 -6 -6 -5 -5 -4 -4
-16 -16 -17 -17 -17 -17 -17 -17 -17 -17 -17 -16 -15 -15 -15 -15 -14 -14 -14 -14 -14 -14 -14 -14 -14 -14 -13 -12 -10 -10 -9 -8 -7 -6 -5 -5 -5 -5
-17 -17 -17 -17 -17 -17 -17 -17 -17 -17 -17 -17 -16 -16 -15 -15 -16 -16 -16 -15 -15 -15 -15 -14 -15 -14 -13 -13 -13 -12 -10 -10 -9 -8 -8 -7 -7 -6
-17 -17 -17 -18 -18 -18 -19 -18 -18 -18 -17 -16 -16 -16 -15 -15 -15 -15 -15 -15 -15 -15 -15 -14 -15 -14 -14 -14 -13 -13 -12 -11 -10 -9 -9 -8 -8 -7
-18 -18 -18 -18 -18 -18 -19 -19 -18 -17 -17 -16 -16 -16 -16 -16 -16 -16 -16 -16 -16 -16 -16 -15 -15 -15 -15 -15 -15 -14 -13 -13 -12 -11 -10 -9 -9 -8
-18 -18 -18 -18 -18 -19 -19 -18 -18 -18 -17 -17 -17 -16 -16 -16 -16 -16 -16 -16 -16 -16 -16 -15 -15 -14 -15 -15 -14 -15 -15 -14 -13 -13 -12 -12 -11 -10
-19 -19 -19 -19 -19 -19 -19 -18 -18 -18 -18 -18 -17 -17 -16 -16 -16 -16 -16 -16 -15 -15 -16 -16 -15 -15 -15 -15 -15 -14 -14 -15 -14 -13 -13 -12 -12 -12
-19 -19 -20 -20 -19 -20 -19 -19 -18 -18 -17 -17 -17 -17 -17 -17 -17 -17 -16 -16 -16 -16 -16 -17 -17 -17 -16 -16 -15 -15 -15 -15 -14 -14 -13 -13 -12 -12
-19 -19 -20 -20 -20 -20 -20 -19 -19 -18 -18 -18 -17 -17 -17 -17 -16 -16 -17 -17 -16 -16 -17 -17 -17 -17 -18 -17 -17 -17 -16 -16 -15 -15 -14 -14 -13 -12
-19 -19 -19 -20 -20 -20 -19 -19 -19 -18 -18 -18 -17 -17 -17 -17 -17 -17 -16 -17 -16 -16 -17 -17 -17 -17 -17 -18 -17 -17 -17 -17 -17 -16 -16 -15 -14 -13
-19 -19 -19 -19 -19 -19 -19 -19 -19 -18 -18 -18 -18 -18 -18 -18 -17 -17 -17 -17 -17 -17 -17 -17 -17 -18 -17 -17 -18 -17 -17 -17 -16 -16 -16 -16 -15 -14
-19 -19 -19 -19 -19 -19 -19 -19 -19 -18 -18 -18 -18 -18 -18 -17 -17 -17 -17 -17 -17 -17 -17 -17 -17 -18 -17 -17 -18 -17 -18 -17 -17 -16 -16 -16 -16 -15
-18 -18 -18 -18 -18 -18 -19 -18 -18 -18 -18 -18 -18 -18 -18 -17 -17 -17 -17 -17 -17 -18 -18 -17 -17 -17 -17 -17 -17 -17 -17 -18 -17 -17 -17 -16 -16 -16
-18 -18 -18 -18 -18 -18 -18 -18 -18 -18 -18 -18 -18 -18 -17 -17 -17 -17 -17 -17 -17 -17 -17 -17 -17 -17 -17 -17 -17 -17 -17 -17 -17 -17 -17 -17 -17 -16
-18 -18 -18 -18 -18 -18 -17 -17 -17 -17 -17 -17 -17 -17 -18 -17 -17 -17 -17 -17 -16 -17 -17 -17 -17 -17 -17 -17 -17 -16 -17 -17 -17 -17 -17 -17 -16 -16
-17 -18 -18 -18 -17 -17 -17 -17 -17 -17 -17 -17 -17 -17 -17 -17 -17 -17 -17 -17 -16 -16 -16 -16 -17 -17 -17 -17 -17 -17 -17 -17 -17 -17 -16 -16 -16 -16
-18 -18 -18 -18 -18 -17 -17 -17 -17 -17 -17 -17 -16 -16 -16 -17 -17 -17 -16 -17 -16 -16 -16 -16 -16 -16 -17 -17 -17 -16 -16 -17 -16 -16 -16 -16 -16 -16
-18 -18 -18 -18 -18 -17 -17 -17 -17 -17 -17 -17 -16 -16 -16 -16 -16 -16 -16 -16 -16 -16 -16 -16 -16 -16 -16 -17 -17 -16 -16 -17 -17 -16 -16 -16 -16 -16
-18 -18 -19 -19 -19 -18 -17 -17 -17 -17 -17 -17 -16 -16 -16 -16 -16 -16 -16 -16 -16 -16 -16 -16 -16 -16 -16 -17 -17 -17 -17 -17 -17 -17 -17 -17 -17 -17
Height
2993 2991 2988 2987 2984 2982 2980 2977 2974 2972 2971 2972 2971 2973 2975 2975 2978 2976 2981 2983 2983 2991 2996 2998 3003 3008 3012 3015 3020 3024 3027 3029 3033 3036 3041 3045 3049 3054
2984 2982 2980 2977 2975 2974 2973 2970 2968 2966 2963 2964 2964 2964 2966 2966 2968 2969 2974 2975 2975 2978 2982 2986 2991 2996 3000 3003 3007 3011 3015 3019 3022 3025 3030 3034 3038 3043
2975 2973 2971 2970 2967 2966 2964 2962 2960 2959 2956 2955 2956 2958 2959 2960 2962 2962 2962 2965 2967 2970 2970 2974 2979 2983 2987 2991 2995 2999 3003 3006 3010 3014 3019 3023 3027 3031
2966 2963 2961 2959 2957 2956 2954 2952 2951 2950 2949 2946 2947 2947 2950 2952 2952 2954 2956 2958 2960 2960 2961 2962 2965 2970 2974 2978 2983 2987 2990 2995 2999 3004 3008 3012 3014 3018
2957 2954 2951 2949 2947 2944 2943 2941 2940 2939 2938 2936 2935 2938 2939 2942 2943 2945 2947 2948 2950 2953 2954 2955 2956 2958 2960 2965 2968 2972 2977 2982 2985 2989 2994 2999 3003 3007
2947 2944 2941 2939 2937 2934 2932 2930 2929 2928 2928 2928 2927 2928 2930 2932 2934 2936 2937 2940 2942 2944 2945 2947 2947 2948 2949 2951 2956 2960 2963 2967 2972 2976 2980 2984 2989 2994
2936 2933 2930 2928 2926 2923 2922 2920 2918 2917 2917 2917 2917 2918 2920 2923 2925 2925 2926 2927 2929 2931 2932 2934 2937 2938 2938 2940 2941 2945 2950 2953 2957 2962 2965 2969 2974 2978
2923 2919 2917 2914 2913 2911 2909 2908 2907 2905 2905 2906 2907 2907 2909 2912 2914 2915 2916 2918 2919 2923 2923 2925 2927 2929 2931 2931 2932 2933 2934 2939 2942 2944 2948 2953 2957 2962
2911 2906 2903 2901 2900 2898 2897 2896 2895 2895 2896 2897 2896 2898 2898 2902 2903 2904 2906 2907 2908 2910 2913 2913 2917 2918 2920 2922 2923 2921 2924 2926 2929 2933 2937 2940 2944 2948
2901 2896 2893 2890 2888 2887 2885 2885 2886 2886 2886 2885 2885 2889 2888 2890 2891 2893 2893 2894 2896 2899 2901 2899 2905 2906 2908 2910 2911 2913 2912 2913 2916 2919 2923 2927 2931 2934
2891 2887 2883 2880 2878 2877 2875 2875 2876 2877 2877 2877 2877 2878 2878 2880 2881 2881 2882 2883 2884 2887 2891 2890 2893 2893 2895 2897 2899 2901 2903 2904 2904 2906 2909 2914 2918 2920
2883 2879 2875 2871 2869 2869 2868 2867 2867 2867 2868 2868 2869 2870 2870 2871 2872 2873 2874 2874 2876 2877 2882 2881 2882 2884 2883 2886 2888 2890 2892 2894 2895 2896 2898 2901 2905 2907
2876 2872 2870 2866 2864 2863 2861 2860 2859 2860 2861 2860 2861 2862 2863 2863 2864 2865 2865 2866 2868 2869 2874 2873 2874 2876 2876 2877 2880 2882 2883 2885 2885 2886 2888 2890 2893 2896
2871 2867 2864 2862 2859 2857 2855 2854 2853 2853 2854 2854 2855 2856 2857 2857 2857 2858 2859 2861 2862 2863 2866 2867 2866 2868 2869 2869 2871 2875 2876 2876 2877 2878 2880 2881 2883 2886
2869 2864 2860 2858 2855 2853 2851 2849 2848 2848 2849 2850 2851 2852 2854 2854 2855 2855 2856 2857 2857 2858 2859 2860 2860 2861 2861 2862 2864 2867 2869 2871 2871 2872 2873 2874 2875 2876
2867 2863 2859 2856 2854 2851 2848 2846 2845 2846 2847 2848 2849 2851 2852 2853 2853 2854 2854 2854 2853 2854 2854 2854 2855 2855 2855 2856 2858 2859 2862 2864 2865 2867 2867 2868 2868 2869
2867 2863 2859 2856 2853 2851 2848 2846 2846 2846 2846 2847 2848 2849 2850 2851 2852 2852 2852 2851 2850 2850 2850 2851 2851 2851 2851 2850 2850 2852 2855 2857 2859 2861 2862 2863 2864 2864
2868 2864 2860 2857 2854 2851 2849 2848 2846 2845 2845 2845 2846 2847 2848 2849 2850 2850 2850 2849 2849 2848 2848 2848 2848 2848 2848 2848 2847 2848 2848 2850 2853 2855 2856 2857 2858 2859
2868 2865 2862 2859 2856 2854 2852 2850 2848 2846 2844 2843 2844 2845 2846 2847 2848 2848 2849 2848 2848 2848 2848 2847 2847 2847 2846 2846 2847 2846 2848 2848 2849 2850 2851 2851 2852 2852
2869 2866 2863 2861 2859 2857 2855 2852 2851 2848 2846 2844 2843 2844 2845 2845 2846 2846 2847 2847 2847 2847 2846 2847 2846 2846 2845 2845 2844 2844 2844 2845 2845 2845 2845 2846 2847 2847
2869 2866 2864 2862 2861 2859 2857 2854 2852 2850 2848 2845 2843 2843 2843 2844 2844 2844 2845 2845 2845 2844 2844 2844 2844 2844 2843 2842 2842 2842 2841 2841 2841 2841 2841 2842 2841 2841
2869 2866 2864 2862 2861 2860 2857 2855 2853 2851 2849 2847 2845 2844 2843 2843 2843 2843 2843 2842 2842 2841 2841 2840 2840 2840 2839 2839 2838 2837 2838 2837 2837 2837 2837 2837 2837 2836
2868 2866 2864 2862 2861 2859 2858 2856 2854 2852 2850 2848 2846 2845 2844 2843 2842 2841 2841 2840 2839 2838 2837 2837 2836 2835 2835 2834 2834 2833 2833 2833 2832 2832 2832 2832 2832 2832
Wind_Speed
37 37 37 36 35 29 30 29 27 30 27 30 38 39 50 35 31 30 32 34 30 36 36 40 41 37 39 38 40 41 40 40 41 43 41 41 41 42
34 34 30 28 25 24 25 28 26 26 31 27 24 25 29 25 24 27 28 27 33 34 31 29 32 35 36 39 41 43 42 40 37 39 39 40 41 41
28 28 29 29 29 28 28 30 29 27 33 33 29 24 23 18 17 21 25 27 29 34 34 37 35 36 36 37 39 41 45 45 42 40 39 39 39 41
35 26 29 32 35 36 35 32 31 36 33 33 32 32 29 29 27 23 22 23 26 28 35 33 35 37 39 41 41 40 41 43 45 44 42 42 43 43
34 36 37 33 36 34 35 40 42 37 34 35 36 34 33 29 33 34 31 30 30 32 30 31 37 38 38 34 38 41 43 45 47 48 47 46 45 46
36 35 34 35 33 33 34 33 33 35 35 37 38 36 32 30 29 30 34 36 37 38 37 38 38 38 39 39 37 39 41 45 48 50 51 50 48 48
39 38 36 34 34 39 39 37 43 39 38 39 38 37 35 31 27 24 25 25 29 30 35 38 40 40 41 39 38 36 39 44 45 47 47 48 48 48
43 40 38 36 34 32 35 38 40 40 35 34 35 36 35 34 34 34 36 37 37 35 39 37 36 37 38 39 37 34 35 37 45 48 50 52 53 53
41 39 36 34 34 33 35 38 37 36 32 28 30 31 33 32 33 35 36 40 43 43 42 44 41 38 39 41 43 44 41 41 39 39 45 49 51 54
36 33 31 29 29 31 33 34 33 32 32 32 32 28 31 30 33 34 37 40 41 40 38 39 33 33 33 34 35 37 41 42 43 43 41 40 44 47
33 30 27 26 25 26 29 30 30 29 30 31 30 29 29 29 30 32 33 34 35 33 31 33 30 31 31 31 32 34 35 36 36 39 41 40 38 43
29 24 21 22 21 20 22 23 25 25 26 26 25 26 26 26 26 28 30 31 30 30 24 28 28 26 28 27 27 27 29 30 32 34 35 37 38 41
29 25 20 18 21 20 21 22 23 23 22 23 22 21 22 23 23 24 26 26 24 24 17 22 25 23 25 24 19 18 20 20 22 25 29 31 32 36
28 24 21 20 19 20 20 20 20 19 18 17 15 13 12 12 11 12 15 18 20 21 17 19 25 24 25 28 23 16 16 16 20 22 20 22 25 29
24 21 20 17 15 15 15 16 14 12 10 8 7 7 6 5 4 4 6 10 14 16 17 20 23 21 23 24 20 18 21 18 19 16 17 21 22 23
20 18 15 13 13 13 11 7 4 5 5 7 7 7 6 5 5 7 7 10 13 11 12 13 15 17 17 20 24 25 22 20 20 17 14 17 20 22
19 16 14 13 12 11 11 6 3 4 6 7 8 8 8 6 5 6 7 7 9 8 6 7 9 11 12 15 21 23 22 24 22 20 19 19 19 16
17 16 15 14 13 13 13 12 8 5 5 7 8 9 8 7 5 6 5 2 4 3 3 7 7 9 9 6 5 5 8 14 20 21 19 18 15 18
16 15 13 10 13 14 12 10 9 8 5 5 7 8 7 8 6 5 5 3 3 2 1 5 6 6 5 2 9 12 7 6 6 17 22 21 19 16
16 14 11 10 12 11 10 10 8 8 8 6 3 6 7 7 6 5 5 5 5 4 6 5 6 7 8 10 12 11 10 9 10 11 13 14 17 19
15 13 7 8 10 11 11 11 10 9 8 9 7 2 7 7 5 4 5 7 7 8 8 8 9 9 9 9 10 9 8 9 10 10 10 11 14 15
15 13 8 5 9 10 10 10 10 10 9 9 8 7 2 4 6 7 8 9 10 10 11 11 12 12 13 14 15 16 12 14 14 13 12 12 13 14
16 13 11 9 8 9 10 9 9 9 8 8 8 7 6 5 4 5 6 7 9 10 10 12 13 13 13 13 15 17 15 15 15 13 13 13 12 12
Wind_Direction
292 291 291 292 294 285 289 292 298 298 293 276 274 265 255 243 247 243 240 242 248 257 259 258 256 246 242 239 239 241 242 243 243 242 240 239 238 237
288 290 289 288 287 285 283 286 286 287 291 291 282 278 269 264 239 228 233 243 255 264 263 253 250 248 237 235 234 234 238 239 240 241 242 240 240 239
291 285 280 276 270 273 271 278 277 279 284 284 282 271 261 251 253 238 211 230 242 256 269 266 257 249 245 239 237 238 236 239 241 240 239 241 241 241
292 293 290 277 268 269 273 265 263 270 272 276 271 269 260 252 245 238 244 257 260 265 268 271 269 256 247 248 244 240 242 244 243 243 242 240 242 244
298 291 288 284 289 291 283 269 268 264 256 261 266 268 270 262 252 245 242 242 242 244 251 258 265 270 265 251 248 245 240 240 243 243 242 243 244 244
295 293 287 284 276 279 280 283 277 270 266 264 267 270 271 268 264 260 254 251 252 253 252 253 259 261 264 266 252 247 247 243 242 244 245 245 243 242
297 294 290 284 277 272 272 270 273 275 269 265 267 270 271 269 262 255 259 257 250 246 248 245 243 252 261 265 268 260 245 246 243 241 242 245 245 241
299 297 292 287 281 271 265 267 269 275 276 269 268 268 268 268 265 259 249 250 251 250 259 263 255 256 256 262 262 262 263 250 245 242 239 238 239 240
300 298 295 287 279 271 261 261 268 275 276 273 271 269 268 265 262 259 259 261 258 257 257 257 255 256 255 255 256 260 258 259 257 247 248 249 244 239
304 301 297 292 284 278 274 271 268 271 272 273 273 273 267 262 258 257 256 255 257 259 261 263 263 261 257 252 251 248 255 258 256 257 252 246 246 248
308 304 300 291 282 277 275 275 274 271 268 268 270 269 267 265 263 262 261 264 265 265 263 264 264 261 258 256 251 252 251 252 255 254 251 251 246 244
320 316 309 296 287 280 278 276 274 271 270 270 270 270 269 267 267 266 267 265 267 268 267 260 260 264 266 263 262 258 254 256 256 257 258 255 251 245
323 321 312 297 296 293 289 284 279 275 274 273 271 269 269 268 265 261 260 262 261 264 267 261 260 261 264 268 265 257 254 250 258 256 255 254 252 248
324 323 318 310 304 299 294 288 282 278 274 270 268 265 270 270 269 265 258 259 264 268 260 257 264 265 263 255 256 249 253 251 254 260 256 258 251 248
330 328 324 323 319 313 304 295 287 276 264 258 259 261 264 263 265 272 281 280 277 275 268 260 263 265 264 260 247 248 249 247 246 256 264 264 261 256
341 339 338 336 332 332 332 317 277 253 255 252 252 248 242 244 257 268 276 279 278 278 272 264 266 270 271 263 252 249 250 244 236 241 250 266 272 266
353 352 353 352 355 359 16 11 324 277 266 255 243 238 234 249 259 278 290 304 302 281 277 275 280 285 292 275 266 266 255 241 233 240 250 263 267 275
355 358 1 5 8 10 17 14 0 307 270 252 239 233 237 234 240 274 286 307 9 358 263 297 290 291 304 318 322 298 272 248 233 233 243 248 264 261
354 356 358 14 26 20 9 7 7 11 360 259 238 232 223 238 251 270 261 275 309 307 345 347 316 324 334 327 322 311 319 316 274 246 250 246 249 260
351 354 357 34 13 8 8 7 3 6 18 16 248 229 229 237 249 260 263 266 273 291 297 306 285 273 269 269 272 274 276 281 280 274 257 257 248 251
349 351 360 33 9 6 8 9 11 12 21 28 27 247 232 236 246 265 264 264 268 274 281 282 283 277 275 276 277 271 272 274 281 281 266 265 264 262
347 347 353 18 360 355 357 0 4 6 14 22 27 27 344 266 269 275 274 273 274 281 287 284 278 276 276 275 274 278 276 274 278 278 273 269 264 267
349 344 340 341 340 341 347 353 356 358 3 8 9 12 6 10 7 339 313 299 293 287 282 283 283 282 281 282 274 275 278 279 277 275 271 269 272 271